Regional Weather Roundup
Issued by NWS

Home | Current Version | Previous Version | Text Only | Print | Product List | Glossary On
Versions: 1 2 3 4 5 6 7 8 9 10 11 12 13 14 15 16 17 18 19 20 21 22 23 24 25 26 27 28 29 30 31 32 33 34 35 36 37 38 39 40 41 42 43 44 45 46 47 48 49 50
000
ASUS46 KLOX 042213
RWRCA

SOUTHERN CALIFORNIA WEATHER ROUNDUP
NATIONAL WEATHER SERVICE OXNARD CALIFORNIA
300 PM PDT TUE AUG 04 2015

NOTE: "FAIR" INDICATES FEW OR NO CLOUDS BELOW 12,000 FEET WITH NO
SIGNIFICANT WEATHER AND/OR OBSTRUCTIONS TO VISIBILITY.

  -  STATIONS PRECEEDED BY AN ASTERISK (*) ARE NOT NWS OR FAA
     STATIONS AND ARE NOT SUBJECT TO NWS AND FAA QUALITY CONTROL.

CAZ041-042-087-042300-
LA AND ORANGE COUNTY COASTAL AREAS


CITY           SKY/WX    TMP DP  RH WIND       PRES   REMARKS
L.A. DOWNTOWN  NOT AVBL
L.A. AIRPORT   MOSUNNY   78  58  49 W21       29.93F
LONG BEACH     SUNNY     86  61  42 W18       29.91S

CITY           SKY/WX    TMP DP  RH WIND       PRES   REMARKS
FULLERTON      SUNNY     89  57  33 SW5       29.89F
HAWTHORNE      SUNNY     81  58  45 W14G23    29.93S
*LOS ALAMITOS  SUNNY     87  57  35 SW9       29.90F
SANTA ANA      MOSUNNY   80  63  55 SW12      29.91F
STA MONICA APT SUNNY     80  58  46 W12       29.93F
TORRANCE       SUNNY     79  64  61 W14G23    29.94R

$$

CAZ547-548-048-042300-
LA COUNTY VALLEYS AND INLAND EMPIRE


CITY           SKY/WX    TMP DP  RH WIND       PRES   REMARKS
BURBANK        SUNNY     89  55  31 S9G20     29.92S
VAN NUYS       SUNNY     93  52  24 SE10      29.91F HX  90

CITY           SKY/WX    TMP DP  RH WIND       PRES   REMARKS
CORONA AIRPORT CLEAR     93  57  29 W14       29.89F HX  91
CHINO          MOSUNNY   97  48  18 W13       29.90F HX  93
MARCH AFB      SUNNY     96  47  18 NW12G18   29.93F HX  92
ONTARIO        MOSUNNY   96  50  20 W13G20    29.91F HX  93
POMONA         SUNNY     91  55  29 W13G18    29.95F
RIVERSIDE      SUNNY     97  47  18 W10       29.89F HX  93
SAN BERNARDINO NOT AVBL
*WHITEMAN AP   NOT AVBL

$$

CAZ054-055-042300-
LA AND SAN BERNARDINO COUNTY MOUNTAINS


CITY           SKY/WX    TMP DP  RH WIND       PRES   REMARKS
*BIG BEAR AIRP CLEAR     79  30  17 W12G17    30.29S
SANDBERG       NOT AVBL

$$

CAZ028-029-059-060-099-042300-
ANTELOPE VALLEY AND SURROUNDING AREAS


CITY           SKY/WX    TMP DP  RH WIND       PRES   REMARKS
LANCASTER      SUNNY     97  45  16 SW25G32   29.94S HX  93
PALMDALE       SUNNY     96  41  15 SW25      29.95F HX  92

CITY           SKY/WX    TMP DP  RH WIND       PRES   REMARKS
29 PALMS       MOSUNNY  103  30   8 SE13      29.94  HX  96
BARSTOW/DAGGET SUNNY    107  22   5 W14G23    29.86F HX  99
BISHOP         CLOUDY    95  24   8 S21G26    29.94F
EDWARDS AFB    PTSUNNY   99  38  12 SW22G31   29.90S HX  94
MOJAVE         SUNNY     99  39  12 W16G23    29.94F HX  94
NEEDLES        SUNNY    113  28   5 SW25G31   29.78F HX 105
VICTORVILLE    SUNNY    100  34  10 W8        29.96F HX  94

$$

CAZ039-040-042300-
VENTURA AND SANTA BARBARA COUNTY COAST


CITY           SKY/WX    TMP DP  RH WIND       PRES   REMARKS
CAMARILLO      SUNNY     81  56  42 W8        29.93F
OXNARD AIRPORT SUNNY     75  60  59 W13       29.93F
SBA APT/GOLETA SUNNY     83  59  44 SW6       29.91F

$$

CAZ044-045-042300-
VENTURA COUNTY VALLEYS


CITY           SKY/WX    TMP DP  RH WIND       PRES   REMARKS

$$

CAZ053-042300-
VENTURA COUNTY MOUNTAINS


CITY           SKY/WX    TMP DP  RH WIND       PRES   REMARKS

$$

CAZ034-035-036-042300-
CENTRAL COAST AND SANTA YNEZ VALLEY


CITY           SKY/WX    TMP DP  RH WIND       PRES   REMARKS
SAN LUIS OBISP MOSUNNY   76  52  43 NW16      29.99F
SANTA MARIA    PTSUNNY   78  55  44 NW18      30.00F

CITY           SKY/WX    TMP DP  RH WIND       PRES   REMARKS
*LOMPOC        SUNNY     79  54  41 NW15G21   30.01F
*SANTA YNEZ    FAIR      82  45  26 NW8G16    29.97F

$$

CAZ037-038-051-042300-
SAN LUIS OBISPO COUNTY INTERIOR AND CUYAMA VALLEY


CITY           SKY/WX    TMP DP  RH WIND       PRES   REMARKS
PASO ROBLES    PTSUNNY   80  53  39 S5        29.97F

$$

CAZ032-033-061-042300-
SOUTHERN DESERTS


CITY           SKY/WX    TMP DP  RH WIND       PRES   REMARKS
BLYTHE         MOSUNNY  111  51  13 S12G21    29.75F HX 108
IMPERIAL       SUNNY    109  37   8 VRB7      29.73F HX 102
PALM SPRINGS   SUNNY    110  34   7 VRB6      29.78F HX 103
THERMAL        SUNNY    110  37   8 VRB5      29.71F HX 103

$$

ELSEWHERE ACROSS THE WESTERN UNITED STATES AND MEXICO


CITY           SKY/WX    TMP DP  RH WIND       PRES   REMARKS
DENVER, CO     MOSUNNY   91  34  13 N18       30.04S
GRAND CANYON,  SUNNY     86  28  12 MISG      30.26F
HONOLULU, HI   MOSUNNY   90  70  51 E10       29.86F HX  95
KAHULUI, MAUI  PTSUNNY   88  72  58 N21       29.87  HX  94
LAKE TAHOE, CA CLOUDY    74  45  35 S12G17    30.18R
LAS VEGAS, NV  NOT AVBL
MAMMOTH LAKES, NOT AVBL
MEXICO CITY, M PTSUNNY   77  46  33 N9        30.23F
PHOENIX, AZ    MOSUNNY  110  43  10 W13G20    29.81F HX 104
PORTLAND, OR   MOSUNNY   79  47  32 N7G17     29.98F
RENO, NV       CLOUDY    89  33  13 NW5       30.00F
SALT LAKE CITY MOSUNNY   89  49  25 VRB3      30.02F
SAN DIEGO, CA  SUNNY     79  64  60 NW15G21   29.92S
SAN FRANCISCO, PTSUNNY   71  52  50 W15       30.02R
SAN JOSE, CA   PTSUNNY   72  53  51 NW14      30.00R
SEATTLE, WA    MOSUNNY   78  50  37 SW12      30.00F
TIJUANA, MEX   SUNNY     82  61  47 W16       29.93S

$$

STATION/POSITION TIME  TEMP    WIND        PRES    VSBY  WAVE
                       AIR SEA DIR/SP/G                  HT/PER
                 (UTC) (F)     (DEG/KT/KT) (MB)    (MI)  (FT/S)
POINT ARGUELLO B NOT AVBL
WEST SANTA BARBA 2150   64 63  300/ 19/ 21 1014.5F         3/15
POINT CONCEPTION NOT AVBL
EAST SANTA BARBA 2200   67 67  270/ 19/ 25 1013.5F
SANTA MONICA BAY 2150   71 72  290/ 10/ 10 1013.6F         3/ 6



USA.gov is the U.S. government's official web portal to all federal, state and local government web resources and services.